AirNav   Everest Fuels
 
 902 users online  

4AR2 Red Oak Airport
Cabot, Arkansas, USA

GOING TO CABOT?


FAA INFORMATION EFFECTIVE 20 MAY 2021

Location

FAA Identifier: 4AR2
Lat/Long: 34-54-36.0000N 092-00-24.0000W
34-54.600000N 092-00.400000W
34.9100000,-92.0066667
(estimated)
Elevation: 315 ft. / 96 m (estimated)
Variation: 02E (2000)
From city: 4 miles S of CABOT, AR
Time zone: UTC -5 (UTC -6 during Standard Time)
Zip code: 72023

Airport Operations

Airport use: Private use. Permission required prior to landing
Activation date: 06/2002
Control tower: no
ARTCC: MEMPHIS CENTER
FSS: JONESBORO FLIGHT SERVICE STATION
Attendance: UNATNDD
Segmented circle: no

Airport Communications

WX AWOS-3PT at ORK (13 nm W): 123.775 (501-906-6529)
WX ASOS at LIT (15 nm SW): PHONE 501-376-0247
WX AWOS-2 at 4M3 (16 nm SE): 119.275 (870-552-1445)

Nearby radio navigation aids

VOR radial/distance  VOR name  Freq  Var
LITr027/16.4LITTLE ROCK VORTAC113.9005E
PBFr350/40.0PINE BLUFF VOR/DME116.0004E

Airport Services

Runway Information

Runway 9/27

Dimensions: 3700 x 100 ft. / 1128 x 30 m
Surface: turf
RUNWAY 9  RUNWAY 27
Traffic pattern: leftleft

Airport Ownership and Management from official FAA records

Ownership: Privately-owned
Owner: RED OAK PROPERTY OWNERS ASSOCIATION
160 OLIVER LANE
CABOT, AR 72023
Phone 501-843-9937
Manager: RED OAK OWNERS ASSOCIATION
160 OLIVER LANE
CABOT, AR 72023

Additional Remarks

FOR CD CTC LITTLE ROCK APCH 501-379-2908 OR LITTLE ROCK ATCT 501-379-2911.

Instrument Procedures

There are no published instrument procedures at 4AR2.

Some nearby airports with instrument procedures:

KLRF - Little Rock Air Force Base (7 nm W)
KORK - North Little Rock Municipal Airport (13 nm W)
KLIT - Bill and Hillary Clinton National Airport/Adams Field (15 nm SW)
4M3 - Carlisle Municipal Airport (16 nm SE)
KSRC - Searcy Municipal Airport (22 nm NE)
 
Loc | Ops | Rwys | IFR | FBO | Links
Com | Nav | Svcs | Stats | Notes
Area around 4AR2 (Red Oak Airport)
 
Road maps at: MapQuest Bing Google
 
Aerial photo
No photo
 
Sectional chart

 
Airport distance calculator
Flying to Red Oak Airport? Find the distance to fly.

From to 4AR2

Sunrise and sunset
Times for 12-Jun-2021
 Local
(UTC-5)
 Zulu
(UTC)
Morning civil twilight05:2510:25
Sunrise05:5510:55
Sunset20:2101:21
Evening civil twilight20:5101:51

Current date and time
Zulu (UTC)  13-Jun-2021 01:26:32
Local (UTC-5)  12-Jun-2021 20:26:32
 
METAR
KLRF 
7nm W 
130056Z AUTO 00000KT 10SM CLR 32/26 A2984 RMK AO2 SLP104 T03150255
KORK 
13nm W 
130115Z AUTO 29003KT 10SM CLR 30/23 A2985 RMK AO2
KLIT 
15nm SW 
130053Z 24004KT 10SM FEW050 BKN250 32/23 A2984 RMK AO2 SLP102 T03170233
TAF
KLRF 
7nm W 
122300Z 1223/1405 VRB06KT 9999 FEW045 QNH2982INS TX35/1321Z TN23/1311Z
KLIT 
15nm SW 
121739Z 1218/1318 VRB05KT P6SM VCTS SCT040CB FM130100 VRB03KT P6SM SCT250 FM131400 36006KT P6SM BKN250
NOTAMs
Click for the latest NOTAMs
NOTAMs are issued by the DoD/FAA and will open in a separate window not controlled by AirNav.

 

 
 

Would you like to see your business listed on this page?

 If your business provides an interesting product or service to pilots, flight crews, aircraft, or users of the Red Oak Airport, you should consider listing it here.  To start the listing process, click on the button below
 
Add a business
 

Other Pages about Red Oak Airport

Update a link
 
Copyright © AirNav, LLC. All rights reserved. Privacy Policy  Contact